Home > Weather > Port Elizabeth > Past weeks

Flag for South Africa Past Weather in Port Elizabeth, South Africa — Yesterday and Last 2 Weeks

Now
48 °F

Clear.


Feels Like: 46 °F
Forecast: 49 / 66 °F
Wind: 5 mph from West

Location: Port Elizabeth Airport

Current Time: Jul 26, 2016 at 10:03:39 PM

Latest Report: Jul 26, 2016 at 9:00 PM


Visibility: 4 mi

Pressure: 29.98 "Hg

Humidity: 87%

Dew Point: 45 °F

Location of Port ElizabethLocation

Past Weather in Port Elizabeth — Graph

°F

Port Elizabeth Temperature Yesterday

Maximum temperature yesterday: 59 °F (at 7:00 PM)
Minimum temperature yesterday: 54 °F (at 12:00 AM)
Average temperature yesterday: 56 °F

High & Low Weather Summary for the Past Weeks

 TemperatureHumidityPressure
High84 °F (Jul 14, 1:00 PM)100% (Jul 13, 6:00 AM)30.48 "Hg (Jul 13, 6:00 AM)
Low43 °F (Jul 24, 8:00 AM)20% (Jul 14, 1:00 PM)29.83 "Hg (Jul 20, 2:00 PM)
Average58 °F74%30.17 "Hg
* Reported Jul 11 9:00 PM — Jul 26 9:00 PM, Port Elizabeth, Weather by CustomWeather, © 2016

Note: Actual official high and low records may vary slightly from our data, if they occured in-between our weather recording intervals... More about our weather records

Advertising

Port Elizabeth Weather History for the Previous 24 Hours

Scroll right to see more
 ConditionsComfort  
Time TempWeatherWind HumidityBarometerVisibility
9:00 PM
Tue, Jul 26
48 °FClear.5 mph87%29.98 "Hg4 mi
8:00 PM52 °FClear.2 mph94%29.98 "Hg4 mi
7:00 PM54 °FClear.No wind94%29.98 "Hg10 mi
6:00 PM57 °FClear.3 mph82%29.98 "Hg5 mi
5:00 PM64 °FPassing clouds.3 mph60%29.95 "HgN/A
4:00 PM64 °FPassing clouds.3 mph60%29.95 "HgN/A
3:00 PM64 °FPassing clouds.3 mph60%29.95 "HgN/A
2:00 PM64 °FSunny.2 mph68%29.95 "Hg10 mi
1:00 PM61 °FPassing clouds.8 mph77%29.98 "HgN/A
12:00 PM61 °FSunny.6 mph77%29.98 "Hg10 mi
11:00 AM59 °FPassing clouds.5 mph77%29.98 "HgN/A
10:00 AM57 °FSunny.10 mph88%30.01 "Hg10 mi
9:00 AM57 °FPassing clouds.6 mph88%30.04 "HgN/A
8:00 AM55 °FSunny.6 mph94%30.04 "Hg10 mi
7:00 AM55 °FSunny.8 mph94%30.01 "Hg10 mi
6:00 AM57 °FClear.8 mph88%30.01 "Hg10 mi
5:00 AM59 °FPassing clouds.15 mph94%29.98 "HgN/A
4:00 AM61 °FRain. Passing clouds.20 mph88%30.01 "Hg3 mi
3:00 AM61 °FRain. Passing clouds.22 mph94%30.04 "Hg3 mi
2:59 AM61 °FRain. Passing clouds.22 mph94%30.04 "Hg3 mi
2:00 AM61 °FRain. Passing clouds.22 mph94%30.07 "Hg3 mi
1:00 AM59 °FRain. Passing clouds.13 mph94%30.09 "Hg2 mi
12:00 AM59 °FRain. Passing clouds.13 mph94%30.15 "Hg4 mi
11:00 PM
Mon, Jul 25
57 °FRain. Passing clouds.9 mph94%30.21 "Hg4 mi
10:00 PM57 °FLight rain. Partly cloudy.15 mph94%30.21 "HgN/A
Weather by CustomWeather, © 2016

See weather overviewHow to use our weather pages